KTXEAGLE7 Weather Reports


time (UTC)temp
F
wind
direction
speed
knots
gust
knots
rain 1hr
in
rain 24hr
in
rain mn
in
humidity
%
barometer
mb
20260502203053 72 5 4.3 13.9 0.00 0.66 0.00 56 1020.1
20260502201544 72 34 6.1 13.0 0.00 0.66 0.00 56 1020.3
20260502200042 72 321 5.2 11.3 0.00 0.70 0.00 56 1020.5
20260502194608 72 13 3.5 12.2 0.00 0.70 0.00 58 1020.5
20260502193037 71 331 3.5 13.0 0.00 0.70 0.00 63 1020.6
20260502191538 71 52 6.1 11.3 0.00 0.70 0.00 62 1020.8
20260502190034 71 5 3.5 11.3 0.00 0.83 0.00 63 1021.1
20260502184535 70 36 5.2 14.8 0.00 0.83 0.00 61 1021.2
20260502183032 70 71 5.2 12.2 0.00 0.83 0.00 62 1021.4
20260502181531 70 316 4.3 11.3 0.00 0.83 0.00 63 1021.5
20260502163017 66 38 4.3 13.9 0.00 1.25 0.00 70 1022.0
20260502161514 65 17 5.2 13.9 0.00 1.25 0.00 71 1022.1
20260502151504 62 46 7.0 13.9 0.00 1.59 0.00 77 1021.5
20260502123036 52 355 2.6 7.8 0.00 1.98 0.00 96 1020.1
20260502121543 52 24 3.5 7.8 0.00 1.98 0.00 96 1019.8
20260502114529 52 307 1.7 9.6 0.00 1.99 0.00 96 1019.4
20260502113029 52 35 2.6 6.1 0.00 1.99 0.00 96 1019.3
20260502111525 52 50 2.6 9.6 0.00 1.99 0.00 96 1019.2
20260502110023 52 342 2.6 7.8 0.00 2.00 0.00 96 1018.9
20260502104537 52 15 3.5 7.0 0.00 2.00 0.00 96 1018.9
20260502103025 53 342 2.6 7.0 0.00 2.00 0.00 95 1018.8
20260502101516 53 15 2.6 6.1 0.00 2.00 0.00 95 1018.7
20260502091511 55 30 1.7 7.0 0.00 2.08 0.00 94 1017.6
20260502070058 56 37 4.3 10.4 0.00 2.60 0.00 94 1017.0
20260502064606 56 44 3.5 13.0 0.00 2.79 0.00 94 1016.9
20260502063052 56 30 4.3 13.0 0.00 2.79 0.00 94 1016.9
20260502061550 56 40 4.3 12.2 0.00 2.79 0.00 94 1017.0
20260502060050 56 355 5.2 14.8 0.00 2.79 0.00 94 1017.0
20260502054547 56 5 4.3 13.0 0.00 2.80 0.00 94 1017.0
20260502053044 56 355 5.2 14.8 0.00 2.80 0.00 95 1016.9
20260502051559 56 56 4.3 12.2 0.00 2.80 0.00 96 1016.9
20260502050038 56 49 6.1 13.9 0.00 3.04 2.80 96 1016.6
20260502044536 56 22 4.3 12.2 0.00 3.04 2.80 97 1016.3
20260502043040 56 69 6.1 13.9 0.00 3.04 2.80 97 1016.3
20260502041534 56 43 5.2 13.9 0.00 3.04 2.80 97 1016.2
20260502040032 56 86 5.2 13.9 0.00 3.18 2.80 97 1016.2
20260502034542 56 340 4.3 12.2 0.00 3.18 2.80 98 1016.4
20260502033042 56 25 4.3 12.2 0.00 3.18 2.80 98 1016.0
20260502031528 56 23 5.2 17.4 0.00 3.18 2.80 98 1015.9
20260502030026 56 73 5.2 11.3 0.00 3.18 2.80 98 1015.8
20260502024528 56 351 3.5 11.3 0.00 3.18 2.80 98 1015.6
20260502023022 56 48 3.5 13.9 0.00 3.18 2.80 98 1015.4
20260502021517 57 34 5.2 13.0 0.00 3.18 2.80 98 1014.8
20260502020013 57 65 6.1 13.0 0.02 3.18 2.80 98 1014.2
20260502014513 58 15 4.3 11.3 0.03 3.18 2.80 98 1014.0
20260502013009 58 355 3.5 10.4 0.04 3.18 2.80 99 1013.9
20260502011507 58 36 5.2 14.8 0.08 3.18 2.80 99 1013.6
20260502010004 58 30 5.2 17.4 0.06 3.16 2.78 99 1013.3
20260502004504 59 76 4.3 13.0 0.06 3.15 2.77 98 1013.0
20260502003100 59 337 5.2 12.2 0.08 3.14 2.76 99 1013.6
20260502001559 59 5 4.3 13.9 0.08 3.10 2.72 98 1013.5
20260502000055 59 321 3.5 13.9 0.18 3.10 2.72 99 1013.7
20260501234558 60 338 4.3 12.2 0.23 3.09 2.71 99 1012.7
20260501233058 60 13 5.2 12.2 0.20 3.05 2.67 98 1012.9
20260501231558 60 315 2.6 10.4 0.24 3.02 2.64 99 1012.8
20260501230050 60 330 6.1 12.2 0.18 2.92 2.54 98 1013.4
20260501224549 61 36 4.3 14.8 0.12 2.86 2.48 99 1010.9
20260501223048 60 55 7.0 15.6 0.11 2.85 2.47 98 1010.2
20260501221547 61 45 7.0 14.8 0.04 2.78 2.40 99 1010.2
20260501220048 61 13 4.3 13.9 0.00 2.74 2.36 99 1010.4
20260501214557 61 44 6.1 13.9 0.00 2.74 2.36 98 1010.2
20260501213049 61 51 5.2 13.9 0.01 2.74 2.36 99 1010.5
20260501211543 62 331 2.6 10.4 0.19 2.74 2.36 99 1010.8
20260501210042 63 349 3.5 12.2 0.22 2.74 2.36 99 1010.8
20260501204542 63 59 4.3 13.0 0.24 2.74 2.36 99 1010.7